Weather History for KFNT - December, 2011

Change the Weather History Date:

Wednesday, December 28, 2011

  Actual Average Record
Temperature  
Mean Temperature 22 °F 24 °F  
Max Temperature 27 °F 31 °F 63 °F (1984)
Min Temperature 17 °F 17 °F -11 °F (2000)
Degree Days  
Heating Degree Days 43 41  
Month to date heating degree days 884 1040  
Since 1 July heating degree days 2093 2521  
Cooling Degree Days 0 0  
Month to date cooling degree days 0 0  
Year to date cooling degree days 819 531  
Moisture  
Dew Point 13 °F    
Average Humidity 67    
Maximum Humidity 80    
Minimum Humidity 54    
Precipitation  
Precipitation 0.00 in 0.06 in 0.63 in (1959)
Month to date precipitation 1.79 1.75  
Year to date precipitation 40.67 31.20  
Snow  
Snow 0.00 in 0.40 in 2.80 in (2009)
Month to date snowfall 4.3 10.5  
Since 1 July snowfall 8.0 13.4  
Snow Depth 1.00 in    
Sea Level Pressure  
Sea Level Pressure 29.97 in    
Wind  
Wind Speed 10 mph (WNW)    
Max Wind Speed 28 mph    
Max Gust Speed 35 mph    
Visibility 10 miles    
Events      
T = Trace of Precipitation, MM = Missing Value Source: NWS Daily Summary

Daily Weather History Graph

Daily Weather History Graph

Search for Another Location

Airport or City:

Trip Planner

Search our weather history database for the weather conditions in past years. The results will help you decide how hot, cold, wet, or windy it might be!

Date:

Astronomy

Dec. 28, 2011 Rise Set
Actual Time 8:05 AM EST 5:07 PM EST
Civil Twilight 7:33 AM EST 5:39 PM EST
Nautical Twilight 6:57 AM EST 6:15 PM EST
Astronomical Twilight 6:22 AM EST 6:50 PM EST
Moon 10:24 AM EST (12/28) 9:50 PM EST (12/28)
Length of Visible Light 10h 06m
Length of Day
9h 02m
Waxing Crescent, 18% of the Moon is Illuminated
Dec 28
Waxing Crescent
Jan 1
First Quarter
Jan 9
Full
Jan 16
Last Quarter
Jan 23
New

Hourly Weather History & Observations

Time (EST) Temp. Windchill Dew Point Humidity Pressure Visibility Wind Dir Wind Speed Gust Speed Precip Events Conditions
12:53 AM 27.0 °F 13.5 °F 18.0 °F 69% 29.77 in 10.0 mi NW 19.6 mph 32.2 mph N/A   Overcast
1:53 AM 26.1 °F 13.6 °F 18.0 °F 71% 29.81 in 10.0 mi NW 16.1 mph 34.5 mph N/A   Overcast
2:53 AM 24.8 °F 11.1 °F 17.6 °F 74% 29.81 in 10.0 mi WNW 18.4 mph - N/A   Overcast
3:53 AM 24.1 °F 10.6 °F 16.0 °F 71% 29.88 in 10.0 mi NW 17.3 mph 24.2 mph N/A   Overcast
4:53 AM 23.0 °F 8.3 °F 14.0 °F 68% 29.89 in 10.0 mi NW 19.6 mph 27.6 mph N/A   Overcast
5:53 AM 23.0 °F 9.6 °F 14.0 °F 68% 29.93 in 10.0 mi NW 16.1 mph 25.3 mph N/A   Overcast
6:40 AM 21.2 °F 9.5 °F 12.2 °F 68% 29.90 in 10.0 mi WNW 11.5 mph - N/A   Scattered Clouds
6:53 AM 19.9 °F 9.3 °F 12.9 °F 74% 29.95 in 10.0 mi WNW 9.2 mph - N/A   Clear
7:53 AM 19.9 °F 7.3 °F 10.9 °F 68% 29.97 in 10.0 mi NW 12.7 mph - N/A   Clear
8:53 AM 19.9 °F 7.9 °F 10.9 °F 68% 29.99 in 10.0 mi NW 11.5 mph - N/A   Clear
9:53 AM 19.9 °F 5.7 °F 10.0 °F 65% 30.02 in 10.0 mi NW 16.1 mph - N/A   Clear
10:53 AM 21.0 °F 8.1 °F 9.0 °F 60% 30.04 in 10.0 mi NW 13.8 mph - N/A   Clear
11:53 AM 21.9 °F 11.0 °F 10.0 °F 60% 30.03 in 10.0 mi NW 10.4 mph - N/A   Clear
12:53 PM 23.0 °F 11.7 °F 9.0 °F 55% 30.02 in 10.0 mi WNW 11.5 mph - N/A   Clear
1:53 PM 24.1 °F 15.2 °F 10.9 °F 57% 30.02 in 10.0 mi WNW 8.1 mph - N/A   Clear
2:53 PM 24.1 °F 13.1 °F 10.9 °F 57% 30.03 in 10.0 mi NW 11.5 mph - N/A   Clear
3:53 PM 24.1 °F 17.0 °F 10.9 °F 57% 30.04 in 10.0 mi WNW 5.8 mph - N/A   Clear
4:53 PM 23.0 °F 18.4 °F 10.9 °F 60% 30.04 in 10.0 mi WNW 3.5 mph - N/A   Clear
5:53 PM 21.0 °F - 12.9 °F 71% 30.04 in 10.0 mi Calm Calm - N/A   Clear
6:53 PM 19.9 °F 14.9 °F 12.0 °F 71% 30.04 in 10.0 mi SSE 3.5 mph - N/A   Partly Cloudy
7:53 PM 19.9 °F 14.9 °F 12.0 °F 71% 30.04 in 10.0 mi SSE 3.5 mph - N/A   Clear
8:53 PM 17.1 °F 11.7 °F 10.9 °F 77% 30.03 in 10.0 mi SSE 3.5 mph - N/A   Clear
9:53 PM 18.0 °F 9.8 °F 12.0 °F 78% 30.01 in 10.0 mi South 5.8 mph - N/A   Mostly Cloudy
10:53 PM 19.9 °F 12.1 °F 14.0 °F 78% 30.00 in 10.0 mi SSE 5.8 mph - N/A   Mostly Cloudy
11:53 PM 21.9 °F 15.7 °F 16.0 °F 78% 29.99 in 10.0 mi South 4.6 mph - N/A   Overcast